Weather History for South Pass, WY

Change the Weather History Date:

Monday, September 2, 2013

  Actual Average (KLND) Record (KLND)
Temperature  
Mean Temperature 67 °F 65 °F  
Max Temperature 75 °F 80 °F 92 °F (1950)
Min Temperature 59 °F 50 °F 34 °F (1914)
Degree Days  
Heating Degree Days 0 3  
Month to date heating degree days 5  
Since 1 July heating degree days 45  
Cooling Degree Days 2 2  
Month to date cooling degree days 5  
Year to date cooling degree days 450  
Growing Degree Days 17 (Base 50)    
Moisture  
Dew Point 43 °F    
Average Humidity 46    
Maximum Humidity 72    
Minimum Humidity 29    
Precipitation  
Precipitation 0.02 in 0.02 in 1.01 in (1973)
Month to date precipitation 0.04  
Year to date precipitation 8.92  
Snow  
Snow 0.00 in 0.00 in - ()
Month to date snowfall 0.0  
Since 1 July snowfall 0.0  
Since 1 September snowfall 0.0  
Snow Depth -    
Sea Level Pressure  
Sea Level Pressure 30.27 in    
Wind  
Wind Speed 7 mph (WSW)    
Max Wind Speed 18 mph    
Max Gust Speed 31 mph    
Visibility 10 miles    
Events Rain , Thunderstorm    
T = Trace of Precipitation, MM = Missing Value Source: NWS Daily Summary

Daily Weather History Graph

Daily Weather History Graph

Search for Another Location

Airport:

Trip Planner

Search our weather history database for the weather conditions in past years. The results will help you decide how hot, cold, wet, or windy it might be!

Date:

Astronomy

Sep. 02, 2013 Rise Set
Actual Time 6:41 AM MDT 7:47 PM MDT
Civil Twilight 6:12 AM MDT 8:15 PM MDT
Nautical Twilight 5:38 AM MDT 8:50 PM MDT
Astronomical Twilight 5:01 AM MDT 9:26 PM MDT
Moon 3:59 AM MDT (9/2) 6:03 PM MDT (9/2)
Length of Visible Light 14h 03m
Length of Day
13h 05m
Waning Crescent, 7% of the Moon is Illuminated
Sep 2
Waning Crescent
Sep 5
New
Sep 12
First Quarter
Sep 19
Full
Sep 26
Last Quarter

Hourly Weather History & Observations

Time (MDT) Temp. Dew Point Humidity Pressure Visibility Wind Dir Wind Speed Gust Speed Precip Events Conditions
12:15 AM 62.6 °F 32.0 °F 32% 30.29 in 10.0 mi North 8.1 mph - N/A   Mostly Cloudy
12:35 AM 62.6 °F 30.2 °F 30% 30.29 in 10.0 mi North 8.1 mph - N/A   Scattered Clouds
12:55 AM 62.6 °F 30.2 °F 30% 30.30 in 10.0 mi North 5.8 mph - N/A   Clear
1:15 AM 62.6 °F 30.2 °F 30% 30.31 in 10.0 mi North 6.9 mph - N/A   Clear
1:35 AM 62.6 °F 30.2 °F 30% 30.30 in 10.0 mi North 6.9 mph - N/A   Mostly Cloudy
1:55 AM 62.6 °F 30.2 °F 30% 30.30 in 10.0 mi North 5.8 mph - N/A   Mostly Cloudy
2:15 AM 62.6 °F 32.0 °F 32% 30.29 in 10.0 mi North 4.6 mph - N/A   Overcast
2:35 AM 62.6 °F 32.0 °F 32% 30.29 in 10.0 mi North 4.6 mph - N/A   Mostly Cloudy
2:55 AM 62.6 °F 32.0 °F 32% 30.29 in 10.0 mi NNE 3.5 mph - N/A   Mostly Cloudy
3:15 AM 64.4 °F 33.8 °F 32% 30.29 in 10.0 mi Calm Calm - N/A   Mostly Cloudy
3:35 AM 62.6 °F 33.8 °F 34% 30.28 in 10.0 mi Calm Calm - N/A   Overcast
3:55 AM 64.4 °F 35.6 °F 34% 30.29 in 10.0 mi Calm Calm - N/A   Overcast
4:15 AM 64.4 °F 37.4 °F 37% 30.29 in 10.0 mi South 5.8 mph - N/A   Overcast
4:35 AM 64.4 °F 37.4 °F 37% 30.29 in 10.0 mi South 5.8 mph - N/A   Overcast
4:55 AM 64.4 °F 37.4 °F 37% 30.29 in 10.0 mi South 3.5 mph - N/A   Overcast
5:15 AM 62.6 °F 37.4 °F 39% 30.28 in 10.0 mi South 4.6 mph - N/A   Overcast
5:35 AM 62.6 °F 37.4 °F 39% 30.28 in 10.0 mi Calm Calm - N/A   Overcast
5:55 AM 62.6 °F 37.4 °F 39% 30.28 in 10.0 mi Calm Calm - N/A Rain Light Rain
6:15 AM 62.6 °F 37.4 °F 39% 30.28 in 10.0 mi WSW 3.5 mph - N/A   Scattered Clouds
6:35 AM 62.6 °F 39.2 °F 42% 30.28 in 10.0 mi Calm Calm - N/A   Clear
6:55 AM 62.6 °F 41.0 °F 45% 30.29 in 10.0 mi WSW 3.5 mph - N/A Thunderstorm Clear
7:15 AM 62.6 °F 41.0 °F 45% 30.29 in 10.0 mi SSW 3.5 mph - N/A   Scattered Clouds
7:35 AM 62.6 °F 41.0 °F 45% 30.29 in 10.0 mi SSW 3.5 mph - N/A Thunderstorm Clear
7:55 AM 62.6 °F 41.0 °F 45% 30.29 in 10.0 mi South 5.8 mph - N/A Thunderstorm Clear
8:15 AM 62.6 °F 41.0 °F 45% 30.29 in 10.0 mi South 6.9 mph - N/A   Clear
8:35 AM 62.6 °F 41.0 °F 45% 30.29 in 10.0 mi South 4.6 mph - N/A   Clear
8:55 AM 64.4 °F 41.0 °F 42% 30.29 in 10.0 mi South 4.6 mph - N/A   Clear
9:15 AM 64.4 °F 42.8 °F 45% 30.30 in 10.0 mi South 9.2 mph 17.3 mph N/A   Clear
9:35 AM 66.2 °F 42.8 °F 43% 30.29 in 10.0 mi SSW 12.7 mph 19.6 mph N/A   Clear
9:55 AM 68.0 °F 42.8 °F 40% 30.29 in 10.0 mi South 12.7 mph 23.0 mph N/A   Clear
10:15 AM 68.0 °F 44.6 °F 43% 30.30 in 10.0 mi South 12.7 mph 19.6 mph N/A   Clear
10:35 AM 69.8 °F 44.6 °F 40% 30.30 in 10.0 mi South 13.8 mph 23.0 mph N/A   Scattered Clouds
10:55 AM 71.6 °F 44.6 °F 38% 30.29 in 10.0 mi South 13.8 mph 25.3 mph N/A   Scattered Clouds
11:15 AM 71.6 °F 44.6 °F 38% 30.29 in 10.0 mi SSW 9.2 mph 25.3 mph N/A   Mostly Cloudy
11:35 AM 69.8 °F 44.6 °F 40% 30.28 in 10.0 mi SSW 15.0 mph 24.2 mph N/A   Mostly Cloudy
11:55 AM 69.8 °F 46.4 °F 43% 30.28 in 10.0 mi SW 12.7 mph 23.0 mph N/A   Mostly Cloudy
12:15 PM 69.8 °F 44.6 °F 40% 30.27 in 10.0 mi SW 12.7 mph 20.7 mph N/A   Overcast
12:35 PM 69.8 °F 44.6 °F 40% 30.27 in 10.0 mi SW 13.8 mph 24.2 mph N/A   Mostly Cloudy
12:55 PM 73.4 °F 44.6 °F 36% 30.26 in 10.0 mi SW 11.5 mph 19.6 mph N/A   Mostly Cloudy
1:15 PM 73.4 °F 44.6 °F 36% 30.25 in 10.0 mi SSW 12.7 mph 21.9 mph N/A   Mostly Cloudy
1:35 PM 69.8 °F 46.4 °F 43% 30.25 in 10.0 mi SW 13.8 mph 23.0 mph N/A   Mostly Cloudy
1:55 PM 71.6 °F 44.6 °F 38% 30.25 in 10.0 mi SW 10.4 mph 20.7 mph N/A   Mostly Cloudy
2:15 PM 73.4 °F 41.0 °F 31% 30.25 in 10.0 mi SW 8.1 mph 18.4 mph N/A   Scattered Clouds
2:35 PM 73.4 °F 42.8 °F 33% 30.24 in 10.0 mi SW 9.2 mph 24.2 mph N/A   Scattered Clouds
2:55 PM 73.4 °F 42.8 °F 33% 30.23 in 10.0 mi SW 12.7 mph 20.7 mph N/A   Mostly Cloudy
3:15 PM 75.2 °F 41.0 °F 29% 30.24 in 10.0 mi WSW 12.7 mph 23.0 mph N/A   Overcast
3:35 PM 73.4 °F 42.8 °F 33% 30.23 in 10.0 mi WSW 12.7 mph 16.1 mph N/A   Mostly Cloudy
3:55 PM 73.4 °F 42.8 °F 33% 30.23 in 10.0 mi WSW 12.7 mph 17.3 mph N/A   Mostly Cloudy
4:15 PM 68.0 °F 50.0 °F 52% 30.23 in 10.0 mi West 18.4 mph 28.8 mph N/A   Overcast
4:35 PM 64.4 °F 50.0 °F 59% 30.25 in 10.0 mi West 15.0 mph 31.1 mph N/A   Overcast
4:55 PM 64.4 °F 50.0 °F 59% 30.25 in 10.0 mi West 15.0 mph 24.2 mph N/A   Overcast
5:15 PM 64.4 °F 50.0 °F 59% 30.27 in 10.0 mi WSW 13.8 mph - N/A   Overcast
5:35 PM 60.8 °F 51.8 °F 72% 30.27 in 7.0 mi WSW 9.2 mph - 0.01 in Rain Light Rain
5:55 PM 62.6 °F 51.8 °F 68% 30.25 in 10.0 mi West 5.8 mph - 0.02 in   Mostly Cloudy
6:15 PM 64.4 °F 50.0 °F 59% 30.25 in 10.0 mi WSW 8.1 mph - N/A   Scattered Clouds
6:35 PM 62.6 °F 48.2 °F 59% 30.24 in 10.0 mi WSW 6.9 mph - N/A   Clear
6:55 PM 62.6 °F 48.2 °F 59% 30.23 in 10.0 mi WSW 6.9 mph - N/A   Clear
7:15 PM 62.6 °F 48.2 °F 59% 30.23 in 10.0 mi SW 8.1 mph - N/A   Clear
7:35 PM 62.6 °F 48.2 °F 59% 30.25 in 10.0 mi WSW 11.5 mph - N/A   Clear
7:55 PM 62.6 °F 50.0 °F 63% 30.24 in 10.0 mi West 6.9 mph - N/A   Clear
8:15 PM 62.6 °F 50.0 °F 63% 30.23 in 10.0 mi West 9.2 mph - N/A   Clear
8:35 PM 60.8 °F 50.0 °F 68% 30.24 in 10.0 mi WSW 8.1 mph - N/A   Clear
8:55 PM 60.8 °F 50.0 °F 68% 30.25 in 10.0 mi West 5.8 mph - N/A   Clear
9:15 PM 60.8 °F 50.0 °F 68% 30.26 in 10.0 mi WNW 4.6 mph - N/A   Clear
9:35 PM 60.8 °F 48.2 °F 63% 30.27 in 10.0 mi West 3.5 mph - N/A   Clear
9:55 PM 60.8 °F 50.0 °F 68% 30.27 in 10.0 mi West 3.5 mph - N/A   Clear
10:15 PM 59.0 °F 48.2 °F 67% 30.28 in 10.0 mi WNW 4.6 mph - N/A   Clear
10:35 PM 60.8 °F 50.0 °F 68% 30.28 in 10.0 mi WNW 4.6 mph - N/A   Clear
10:55 PM 59.0 °F 50.0 °F 72% 30.28 in 10.0 mi WNW 5.8 mph - N/A   Clear
11:15 PM 59.0 °F 50.0 °F 72% 30.27 in 10.0 mi West 4.6 mph - N/A   Clear
11:35 PM 59.0 °F 50.0 °F 72% 30.28 in 10.0 mi WSW 4.6 mph - N/A   Clear
11:55 PM 59.0 °F 50.0 °F 72% 30.28 in 10.0 mi West 3.5 mph - N/A   Clear